Location: Dittelbrunn
(50.0738°N, 10.2196°E)
Time: 02:07:17
(UTC+00:00)

CZ-4C R/B - Pass Details

Date: 18 September 2020
Orbit: 626 x 1376 km, 63.4° (Epoch: 30 October)

Event Time Altitude Azimuth Distance (km) Brightness Sun altitude
Exits shadow 23:01:59 27° 33° (NNE) 1,685 4.0 -38.5°
Drops below altitude 10° 23:04:53 10° 41° (NE) 2,727 5.3 -38.5°
Sets 23:07:47 0° 45° (NE) 3,806 6.1 -38.5°
